This is the latest recevied weather packets stored in our database for station/object WB4YDL. If no packets are shown the sender has not sent any weather packets the latest 10 day(s).
| Time | Temp. | Humidity | Pressure | Rain* | Wind** | Luminosity | Snow |
|---|---|---|---|---|---|---|---|
| 1778029244 | 17.78° C | 99% | 1000.7 hPa | 1.27 mm | - | 0 W/m² | - |
| 1778028942 | 17.78° C | 99% | 1000.7 hPa | 0 mm | - | 0 W/m² | - |
| 1778028638 | 17.78° C | 99% | 1000.6 hPa | 0 mm | - | 1 W/m² | - |
| 1778028335 | 17.78° C | 99% | 1000.3 hPa | 0 mm | - | 3 W/m² | - |
| 1778028032 | 17.78° C | 99% | 1000.6 hPa | 0 mm | - | 4 W/m² | - |
| 1778027728 | 17.78° C | 99% | 1000.5 hPa | 0 mm | - | 8 W/m² | - |
| 1778027424 | 17.78° C | 99% | 1000.5 hPa | 0 mm | - | 6 W/m² | - |
| 1778027121 | 17.78° C | 99% | 1000.8 hPa | 0 mm | - | 9 W/m² | - |
| 1778026816 | 17.78° C | 99% | 1001.3 hPa | 0 mm | - | 6 W/m² | - |
| 1778026513 | 17.78° C | 99% | 1001.3 hPa | 0 mm | - | 6 W/m² | - |
| 1778026210 | 17.78° C | 99% | 1001.4 hPa | 0 mm | - | 6 W/m² | - |
| 1778025908 | 17.78° C | 99% | 1001.4 hPa | 0 mm | - | 5 W/m² | - |
| 1778025605 | 17.78° C | 99% | 1001.6 hPa | 0 mm | - | 6 W/m² | - |
| 1778025303 | 17.78° C | 99% | 1001.3 hPa | 0 mm | - | 7 W/m² | - |
| 1778024999 | 17.78° C | 99% | 1001.2 hPa | 0 mm | - | 12 W/m² | - |
| 1778024696 | 17.78° C | 99% | 1001.2 hPa | 0 mm | - | 14 W/m² | - |
| 1778024393 | 17.78° C | 99% | 1001.2 hPa | 0 mm | - | 21 W/m² | - |
| 1778024091 | 17.78° C | 99% | 1001.3 hPa | 0 mm | - | 24 W/m² | - |
| 1778023788 | 17.78° C | 99% | 1001.3 hPa | 0 mm | - | 21 W/m² | - |
| 1778023486 | 17.78° C | 99% | 1001.5 hPa | 0 mm | - | 27 W/m² | - |
| 1778023183 | 17.78° C | 99% | 1001.5 hPa | 1.78 mm | - | 29 W/m² | - |
| 1778022880 | 17.78° C | 99% | 1002 hPa | 1.78 mm | - | 21 W/m² | - |
| 1778022578 | 17.78° C | 99% | 1001.6 hPa | 0 mm | - | 25 W/m² | - |
| 1778022276 | 17.78° C | 99% | 1001.8 hPa | 0 mm | - | 30 W/m² | - |
| 1778021972 | 17.78° C | 99% | 1001.8 hPa | 0 mm | - | 37 W/m² | - |
* Rain latest hour (hover to see other rain measurements)
** Current wind speed in m/s (hover to see current wind gust speed)